AK27 OEMA-OEJN

Flight info

Callsign AK27
Flight time 0h 43m
Altitude 28000
Route OEMA/35 SISU1K SISUD B544 NOMDA NOMD2S OEJN/16L
Aircraft A35K/H-SDE2E3GHIJ3J4J5LM1ORWXY/LB1D1

Departure

Time 2026-04-16 12:11
Airport Prince Mohammad Bin Abdulaziz Airport (OEMA)

Arrival

Time 2026-04-16 12:54
Airport King Abdulaziz International Airport (OEJN)
Time Latitude Longitude Altitude Speed Heading
2026-04-16 11:55 24.55312 39.71292 2101 ft 0 kts 79°
2026-04-16 12:02 24.55310 39.71279 2100 ft 3 kts 79°
2026-04-16 12:02 24.55306 39.71258 2100 ft 3 kts 79°
2026-04-16 12:03 24.55303 39.71237 2101 ft 3 kts 88°
2026-04-16 12:03 24.55310 39.71217 2102 ft 3 kts 162°
2026-04-16 12:03 24.55317 39.71215 2103 ft 0 kts 168°
2026-04-16 12:05 24.55309 39.71217 2102 ft 3 kts 168°
2026-04-16 12:06 24.55279 39.71213 2101 ft 7 kts 195°
2026-04-16 12:06 24.55252 39.71184 2099 ft 6 kts 233°
2026-04-16 12:06 24.55233 39.71121 2098 ft 13 kts 257°
2026-04-16 12:06 24.55182 39.71052 2096 ft 12 kts 194°
2026-04-16 12:07 24.55097 39.71064 2095 ft 14 kts 169°
2026-04-16 12:07 24.54981 39.71088 2092 ft 19 kts 169°
2026-04-16 12:07 24.54849 39.71117 2090 ft 20 kts 168°
2026-04-16 12:07 24.54710 39.71146 2088 ft 21 kts 171°
2026-04-16 12:08 24.54562 39.71179 2085 ft 25 kts 168°
2026-04-16 12:08 24.54373 39.71219 2079 ft 30 kts 169°
2026-04-16 12:08 24.54156 39.71265 2074 ft 33 kts 168°
2026-04-16 12:08 24.53923 39.71316 2074 ft 31 kts 171°
2026-04-16 12:09 24.53853 39.71313 2072 ft 4 kts 219°
2026-04-16 12:09 24.53823 39.71248 2072 ft 14 kts 253°
2026-04-16 12:09 24.53851 39.71119 2072 ft 18 kts 317°
2026-04-16 12:09 24.53932 39.71112 2073 ft 10 kts 17°
2026-04-16 12:10 24.53984 39.71109 2071 ft 9 kts 349°
2026-04-16 12:10 24.54217 39.71060 2075 ft 63 kts 348°
2026-04-16 12:10 24.54821 39.70933 2091 ft 112 kts 349°
2026-04-16 12:10 24.55735 39.70734 2104 ft 154 kts 348°
2026-04-16 12:11 24.56880 39.70474 2261 ft 180 kts 347°
2026-04-16 12:11 24.58051 39.70210 2944 ft 161 kts 348°
2026-04-16 12:11 24.59193 39.69973 3275 ft 170 kts 349°
2026-04-16 12:11 24.60403 39.69728 3483 ft 184 kts 349°
2026-04-16 12:12 24.61715 39.69457 3668 ft 200 kts 348°
2026-04-16 12:12 24.63146 39.69157 3879 ft 219 kts 348°
2026-04-16 12:12 24.64668 39.68824 4217 ft 230 kts 346°
2026-04-16 12:12 24.66161 39.68159 4696 ft 235 kts 325°
2026-04-16 12:13 24.67259 39.66843 5211 ft 237 kts 297°
2026-04-16 12:13 24.67665 39.65100 5735 ft 239 kts 270°
2026-04-16 12:13 24.67519 39.63225 6054 ft 254 kts 262°
2026-04-16 12:13 24.67215 39.61236 6290 ft 272 kts 260°
2026-04-16 12:14 24.66885 39.59157 6540 ft 289 kts 260°
2026-04-16 12:14 24.66544 39.56912 6801 ft 306 kts 261°
2026-04-16 12:14 24.66197 39.54540 7078 ft 321 kts 261°
2026-04-16 12:14 24.65844 39.52080 7540 ft 329 kts 261°
2026-04-16 12:15 24.65488 39.49583 8096 ft 333 kts 261°
2026-04-16 12:15 24.65130 39.47052 8686 ft 337 kts 261°
2026-04-16 12:15 24.64890 39.45354 9076 ft 339 kts 261°
2026-04-16 12:15 24.64525 39.42781 9672 ft 342 kts 261°
2026-04-16 12:16 24.64159 39.40192 10246 ft 345 kts 261°
2026-04-16 12:16 24.63645 39.36704 10970 ft 349 kts 258°
2026-04-16 12:16 24.63139 39.35015 11311 ft 352 kts 244°
2026-04-16 12:16 24.61643 39.32896 11845 ft 355 kts 220°
2026-04-16 12:17 24.59483 39.31600 12367 ft 358 kts 197°
2026-04-16 12:17 24.57011 39.31343 12872 ft 361 kts 173°
2026-04-16 12:17 24.54553 39.31946 13382 ft 364 kts 165°
2026-04-16 12:17 24.52090 39.32627 13867 ft 367 kts 167°
2026-04-16 12:18 24.49573 39.33185 14329 ft 370 kts 170°
2026-04-16 12:18 24.47022 39.33641 14803 ft 373 kts 172°
2026-04-16 12:18 24.44445 39.34036 15275 ft 375 kts 173°
2026-04-16 12:18 24.41840 39.34401 15734 ft 378 kts 173°
2026-04-16 12:19 24.39220 39.34749 16178 ft 381 kts 173°
2026-04-16 12:19 24.36584 39.35089 16634 ft 383 kts 173°
2026-04-16 12:19 24.33954 39.35423 17058 ft 386 kts 174°
2026-04-16 12:19 24.31277 39.35760 17489 ft 388 kts 174°
2026-04-16 12:20 24.28584 39.36097 17933 ft 391 kts 174°
2026-04-16 12:20 24.25872 39.36435 18332 ft 393 kts 174°
2026-04-16 12:20 24.23143 39.36775 18739 ft 396 kts 174°
2026-04-16 12:20 24.20395 39.37117 19114 ft 399 kts 174°
2026-04-16 12:21 24.17628 39.37461 19522 ft 401 kts 174°
2026-04-16 12:21 24.14844 39.37807 19880 ft 404 kts 174°
2026-04-16 12:21 24.12050 39.38155 19992 ft 404 kts 174°
2026-04-16 12:21 24.09253 39.38502 20001 ft 405 kts 174°
2026-04-16 12:22 24.06452 39.38849 20000 ft 405 kts 174°
2026-04-16 12:22 24.03647 39.39197 19998 ft 406 kts 174°
2026-04-16 12:22 24.00842 39.39545 19998 ft 406 kts 174°
2026-04-16 12:22 23.98071 39.39889 20002 ft 406 kts 174°
2026-04-16 12:23 23.95263 39.40237 20000 ft 406 kts 174°
2026-04-16 12:23 23.92455 39.40584 19999 ft 406 kts 174°
2026-04-16 12:23 23.89649 39.40931 20001 ft 406 kts 174°
2026-04-16 12:23 23.86840 39.41279 19999 ft 406 kts 174°
2026-04-16 12:24 23.84029 39.41626 20000 ft 406 kts 174°
2026-04-16 12:24 23.81221 39.41974 20003 ft 406 kts 174°
2026-04-16 12:24 23.78407 39.42285 19998 ft 406 kts 176°
2026-04-16 12:24 23.75584 39.42299 19999 ft 406 kts 184°
2026-04-16 12:25 23.72787 39.41856 20000 ft 406 kts 193°
2026-04-16 12:25 23.70044 39.41083 20002 ft 406 kts 196°
2026-04-16 12:25 23.67339 39.40188 20001 ft 406 kts 198°
2026-04-16 12:25 23.64656 39.39236 20001 ft 406 kts 198°
2026-04-16 12:26 23.61964 39.38263 20000 ft 407 kts 198°
2026-04-16 12:26 23.59265 39.37294 20000 ft 407 kts 198°
2026-04-16 12:26 23.56619 39.36351 20002 ft 404 kts 198°
2026-04-16 12:26 23.53949 39.35410 20005 ft 403 kts 198°
2026-04-16 12:27 23.51277 39.34479 20000 ft 402 kts 198°
2026-04-16 12:27 23.48614 39.33556 19999 ft 401 kts 198°
2026-04-16 12:27 23.45948 39.32636 19899 ft 400 kts 198°
2026-04-16 12:27 23.43307 39.31726 19541 ft 393 kts 198°
2026-04-16 12:28 23.40737 39.30841 19314 ft 382 kts 198°
2026-04-16 12:28 23.38236 39.29981 19129 ft 371 kts 198°
2026-04-16 12:28 23.35810 39.29146 18900 ft 361 kts 198°
2026-04-16 12:28 23.33457 39.28336 18523 ft 357 kts 198°
2026-04-16 12:29 23.31088 39.27520 18142 ft 353 kts 198°
2026-04-16 12:29 23.28755 39.26717 18001 ft 351 kts 198°
2026-04-16 12:29 23.26421 39.25913 17999 ft 352 kts 198°
2026-04-16 12:29 23.24086 39.25109 18004 ft 352 kts 198°
2026-04-16 12:30 23.21750 39.24305 18001 ft 352 kts 198°
2026-04-16 12:30 23.19447 39.23514 17996 ft 352 kts 198°
2026-04-16 12:30 23.17113 39.22711 17996 ft 352 kts 198°
2026-04-16 12:30 23.14775 39.21908 18005 ft 352 kts 198°
2026-04-16 12:31 23.12444 39.21108 17998 ft 352 kts 198°
2026-04-16 12:31 23.10107 39.20306 17996 ft 352 kts 198°
2026-04-16 12:31 23.07774 39.19505 18002 ft 351 kts 198°
2026-04-16 12:31 23.05439 39.18704 17996 ft 351 kts 198°
2026-04-16 12:32 23.03129 39.17912 18003 ft 351 kts 198°
2026-04-16 12:32 23.00791 39.17111 17999 ft 351 kts 198°
2026-04-16 12:32 22.98459 39.16312 18005 ft 350 kts 198°
2026-04-16 12:32 22.96173 39.15529 17912 ft 338 kts 198°
2026-04-16 12:33 22.93958 39.14772 17715 ft 329 kts 198°
2026-04-16 12:33 22.91788 39.14029 17360 ft 324 kts 198°
2026-04-16 12:33 22.89667 39.13304 16953 ft 322 kts 198°
2026-04-16 12:33 22.87537 39.12575 16545 ft 320 kts 198°
2026-04-16 12:34 22.85421 39.11852 16130 ft 317 kts 198°
2026-04-16 12:34 22.83320 39.11134 15712 ft 315 kts 198°
2026-04-16 12:34 22.81230 39.10430 15294 ft 313 kts 196°
2026-04-16 12:34 22.79101 39.09952 14858 ft 312 kts 187°
2026-04-16 12:35 22.76941 39.09821 14449 ft 310 kts 181°
2026-04-16 12:35 22.74792 39.09834 14036 ft 308 kts 179°
2026-04-16 12:35 22.72656 39.09878 13619 ft 306 kts 179°
2026-04-16 12:35 22.70533 39.09932 13329 ft 303 kts 179°
2026-04-16 12:36 22.68447 39.09999 13273 ft 304 kts 179°
2026-04-16 12:36 22.66336 39.10067 13274 ft 304 kts 179°
2026-04-16 12:36 22.64217 39.10135 13274 ft 304 kts 179°
2026-04-16 12:36 22.62112 39.10271 13271 ft 304 kts 172°
2026-04-16 12:37 22.60103 39.10960 13271 ft 304 kts 152°
2026-04-16 12:37 22.58469 39.12397 13273 ft 304 kts 129°
2026-04-16 12:37 22.57434 39.14377 13278 ft 304 kts 111°
2026-04-16 12:37 22.56757 39.16556 13274 ft 305 kts 107°
2026-04-16 12:38 22.56139 39.18758 13274 ft 306 kts 107°
2026-04-16 12:38 22.55395 39.20914 13275 ft 306 kts 116°
2026-04-16 12:38 22.54369 39.22926 13275 ft 305 kts 121°
2026-04-16 12:38 22.53268 39.24891 13275 ft 305 kts 122°
2026-04-16 12:39 22.52153 39.26852 13273 ft 306 kts 122°
2026-04-16 12:39 22.51051 39.28783 13273 ft 306 kts 122°
2026-04-16 12:39 22.49747 39.30593 13273 ft 305 kts 133°
2026-04-16 12:39 22.48266 39.32239 13276 ft 305 kts 135°
2026-04-16 12:40 22.46677 39.33763 13272 ft 305 kts 146°
2026-04-16 12:40 22.44750 39.34671 13274 ft 303 kts 169°
2026-04-16 12:40 22.42661 39.34634 13274 ft 302 kts 194°
2026-04-16 12:40 22.40777 39.33653 13274 ft 301 kts 219°
2026-04-16 12:41 22.39330 39.32018 13276 ft 302 kts 231°
2026-04-16 12:41 22.38042 39.30228 13273 ft 302 kts 233°
2026-04-16 12:41 22.36782 39.28438 13274 ft 303 kts 233°
2026-04-16 12:41 22.35500 39.26635 13275 ft 302 kts 232°
2026-04-16 12:42 22.34209 39.24838 13275 ft 302 kts 232°
2026-04-16 12:42 22.32918 39.23052 13273 ft 302 kts 232°
2026-04-16 12:42 22.31622 39.21267 13139 ft 299 kts 232°
2026-04-16 12:42 22.30336 39.19499 12695 ft 299 kts 232°
2026-04-16 12:43 22.29052 39.17738 12235 ft 298 kts 232°
2026-04-16 12:43 22.27773 39.15983 11825 ft 296 kts 232°
2026-04-16 12:43 22.26502 39.14241 11418 ft 294 kts 232°
2026-04-16 12:43 22.25238 39.12510 11000 ft 293 kts 232°
2026-04-16 12:44 22.23981 39.10788 10593 ft 291 kts 232°
2026-04-16 12:44 22.22743 39.09094 10184 ft 289 kts 232°
2026-04-16 12:44 22.21502 39.07395 9768 ft 287 kts 232°
2026-04-16 12:44 22.20267 39.05706 9353 ft 286 kts 232°
2026-04-16 12:45 22.19039 39.04027 8952 ft 284 kts 232°
2026-04-16 12:45 22.17672 39.02551 8705 ft 274 kts 211°
2026-04-16 12:45 22.15901 39.01974 8495 ft 264 kts 184°
2026-04-16 12:45 22.14106 39.01978 8344 ft 252 kts 178°
2026-04-16 12:46 22.12390 39.02054 8152 ft 242 kts 178°
2026-04-16 12:46 22.10720 39.02122 7836 ft 238 kts 178°
2026-04-16 12:46 22.09065 39.02176 7491 ft 236 kts 179°
2026-04-16 12:46 22.07448 39.02228 7132 ft 235 kts 177°
2026-04-16 12:47 22.05846 39.02550 6763 ft 234 kts 163°
2026-04-16 12:47 22.04313 39.03123 6413 ft 232 kts 160°
2026-04-16 12:47 22.02799 39.03734 6061 ft 231 kts 160°
2026-04-16 12:47 22.01306 39.04336 5728 ft 228 kts 160°
2026-04-16 12:48 21.99823 39.04930 5348 ft 228 kts 160°
2026-04-16 12:48 21.98337 39.05521 4995 ft 225 kts 160°
2026-04-16 12:48 21.96901 39.06091 4843 ft 213 kts 160°
2026-04-16 12:48 21.95547 39.06626 4714 ft 200 kts 160°
2026-04-16 12:49 21.94273 39.07133 4523 ft 191 kts 160°
2026-04-16 12:49 21.93070 39.07611 4307 ft 184 kts 160°
2026-04-16 12:49 21.91868 39.08087 3969 ft 184 kts 160°
2026-04-16 12:49 21.90659 39.08566 3627 ft 185 kts 160°
2026-04-16 12:50 21.89456 39.09043 3332 ft 183 kts 160°
2026-04-16 12:50 21.88286 39.09507 3253 ft 176 kts 160°
2026-04-16 12:50 21.87129 39.09968 3270 ft 179 kts 160°
2026-04-16 12:50 21.85972 39.10427 3272 ft 180 kts 160°
2026-04-16 12:51 21.84791 39.10892 3218 ft 181 kts 160°
2026-04-16 12:51 21.83614 39.11356 3103 ft 179 kts 160°
2026-04-16 12:51 21.82452 39.11814 2981 ft 178 kts 160°
2026-04-16 12:51 21.81286 39.12275 2853 ft 178 kts 160°
2026-04-16 12:52 21.80121 39.12735 2718 ft 179 kts 160°
2026-04-16 12:52 21.78953 39.13196 2521 ft 178 kts 160°
2026-04-16 12:52 21.77791 39.13655 2328 ft 178 kts 160°
2026-04-16 12:52 21.76642 39.14113 2036 ft 173 kts 160°
2026-04-16 12:53 21.75522 39.14555 1637 ft 173 kts 160°
2026-04-16 12:53 21.74391 39.15002 1230 ft 173 kts 160°
2026-04-16 12:53 21.73277 39.15451 897 ft 169 kts 160°
2026-04-16 12:53 21.72163 39.15871 512 ft 168 kts 160°
2026-04-16 12:54 21.71105 39.16294 316 ft 157 kts 159°
2026-04-16 12:54 21.70103 39.16696 124 ft 156 kts 160°
2026-04-16 12:54 21.69102 39.17084 32 ft 139 kts 160°
2026-04-16 12:54 21.68492 39.17322 32 ft 43 kts 160°
2026-04-16 12:55 21.68262 39.17355 33 ft 30 kts 183°
2026-04-16 12:55 21.68204 39.17349 34 ft 0 kts 188°
2026-04-16 12:56 21.68199 39.17348 34 ft 6 kts 188°
2026-04-16 12:56 21.68198 39.17348 34 ft 0 kts 188°
2026-04-16 12:56 21.68197 39.17348 34 ft 1 kts 188°
2026-04-16 12:57 21.68117 39.17335 36 ft 18 kts 191°
2026-04-16 12:57 21.67973 39.17307 36 ft 23 kts 190°
2026-04-16 12:57 21.67820 39.17256 37 ft 21 kts 181°
2026-04-16 12:57 21.67697 39.17299 37 ft 19 kts 160°
2026-04-16 12:58 21.67572 39.17348 38 ft 19 kts 160°
2026-04-16 12:58 21.67442 39.17400 38 ft 20 kts 159°
2026-04-16 12:58 21.67309 39.17454 39 ft 19 kts 159°
2026-04-16 12:58 21.67218 39.17457 39 ft 10 kts 223°
2026-04-16 12:59 21.67180 39.17398 39 ft 10 kts 230°
2026-04-16 12:59 21.67167 39.17344 39 ft 4 kts 306°
2026-04-16 12:59 21.67195 39.17309 39 ft 11 kts 311°